Tracking 19720 objects as of 26-Jun-2019
HD Live streaming from Space Station
objects crossing your sky now

FENGYUN 1C DEB

Track FENGYUN 1C DEB now!
10-day predictions


NORAD ID: 30477
Int'l Code: 1999-025AGQ
Perigee: 860.5 km
Apogee: 1,534.0 km
Inclination: 99.4 °
Period: 109.2 minutes
Semi major axis: 7568 km
RCS: 0.0105 m2 (small)
Launch date: May 10, 1999
Source: People's Republic of China (PRC)
Launch site: Taiyaun Space Center, China (TSC)

Note: This is SATELLITE DEBRIS
aabbcc
Your satellite tracking list
Your tracking list is empty




NASA's NSSDC Master Catalog

Two Line Element Set (TLE):
1 30477U 99025AGQ 19176.64391413  .00000811  00000-0  12884-2 0  9996
2 30477  99.4211 103.2037 0445010 156.4889 325.9880 13.18591074595812
Source of the keplerian elements: AFSPC